datetime,unregulated inflow volume
1962-12-03,1200.21572
1962-12-04,1096.15699
1962-12-05,1096.17762
1962-12-06,1100.08192
1962-12-07,1208.06875
1962-12-08,1000.0094
1962-12-09,1104.01844
1962-12-10,1289.28226
1962-12-11,1105.09693
1962-12-12,1001.02832
1962-12-13,1105.04066
1962-12-14,1104.97401
1962-12-15,1104.98146
1962-12-16,1000.99353
1962-12-17,1467.9837
1962-12-18,999.822629
1962-12-19,1103.82838
1962-12-20,999.827939
1962-12-21,1103.8318
1962-12-22,1007.7702
1962-12-23,903.767259
1962-12-24,911.701281
1962-12-25,1015.70074
1962-12-26,999.835141
1962-12-27,991.905575
1962-12-28,991.903073
1962-12-29,471.902126
1962-12-30,471.891475
1962-12-31,575.890084
1963-01-01,679.885213
1963-01-02,564.839301
1963-01-03,793.537693
1963-01-04,793.534214
1963-01-05,905.474107
1963-01-06,1009.4765
1963-01-07,1009.48083
1963-01-08,913.419665
1963-01-09,1017.42206
1963-01-10,927.31139
1963-01-11,1039.24781
1963-01-12,831.253151
1963-01-13,831.249672
1963-01-14,823.318092
1963-01-15,719.319056
1963-01-16,719.319056
1963-01-17,623.252577
1963-01-18,623.25215
1963-01-19,623.331618
1963-01-20,623.334974
1963-01-21,623.329542
1963-01-22,623.330946
1963-01-23,623.330336
1963-01-24,727.328395
1963-01-25,631.343337
1963-01-26,631.346572
1963-01-27,639.274979
1963-01-28,751.210966
1963-01-29,751.210966
1963-01-30,751.29611
1963-01-31,847.365824
1963-02-01,743.363858
1963-02-02,1055.36805
1963-02-03,1055.3733
1963-02-04,951.378715
1963-02-05,1255.53897
1963-02-06,1255.54812
1963-02-07,1255.55655
1963-02-08,1352.75736
1963-02-09,1611.47749
1963-02-10,1715.49117
1963-02-11,1619.52668
1963-02-12,1411.52971
1963-02-13,1523.47443
1963-02-14,1419.48345
1963-02-15,1507.62237
1963-02-16,1429.50444
1963-02-17,1429.51567
1963-02-18,1541.45697
1963-02-19,1333.46049
1963-02-20,1549.4057
1963-02-21,1445.50835
1963-02-22,1445.51226
1963-02-23,1557.45783
1963-02-24,1671.38497
1963-02-25,1567.39704
1963-02-26,1679.35164
1963-02-27,1687.38826
1963-02-28,1150.99977
1963-03-01,1620.04768
1963-03-02,1418.13555
1963-03-03,1532.07636
1963-03-04,1532.10553
1963-03-05,1100.26673
1963-03-06,1154.69862
1963-03-07,1653.02644
1963-03-08,1757.05575
1963-03-09,1441.10906
1963-03-10,1441.1336
1963-03-11,1437.19951
1963-03-12,1329.36149
1963-03-13,1329.38077
1963-03-14,1333.3754
1963-03-15,1437.40508
1963-03-16,1437.53679
1963-03-17,1437.57695
1963-03-18,1437.71087
1963-03-19,1441.70842
1963-03-20,1518.09967
1963-03-21,1549.86994
1963-03-22,1518.27728
1963-03-23,1858.2208
1963-03-24,1858.2739
1963-03-25,1966.40234
1963-03-26,2066.5066
1963-03-27,2013.13452
1963-03-28,2143.0027
1963-03-29,2298.78226
1963-03-30,2523.98492
1963-03-31,2524.07184
1963-04-01,2606.34602
1963-04-02,2606.5406
1963-04-03,2628.44563
1963-04-04,2426.59843
1963-04-05,2677.17708
1963-04-06,2417.83379
1963-04-07,2421.87968
1963-04-08,2422.10576
1963-04-09,2422.35966
1963-04-10,2526.48077
1963-04-11,2526.75665
1963-04-12,2514.9793
1963-04-13,2493.43682
1963-04-14,2285.54422
1963-04-15,2385.856
1963-04-16,2178.16335
1963-04-17,2074.45166
1963-04-18,2174.60304
1963-04-19,2228.47732
1963-04-20,1970.32812
1963-04-21,1958.73656
1963-04-22,2043.01416
1963-04-23,1737.25009
1963-04-24,1845.53086
1963-04-25,2075.67432
1963-04-26,2075.81104
1963-04-27,1758.16977
1963-04-28,1966.58337
1963-04-29,1926.43907
1963-04-30,2200.31838
1963-05-01,2197.43483
1963-05-02,2358.30473
1963-05-03,2358.79618
1963-05-04,2151.23732
1963-05-05,2359.51762
1963-05-06,2256.00955
1963-05-07,2256.51028
1963-05-08,2370.95072
1963-05-09,2159.23366
1963-05-10,2882.32578
1963-05-11,3091.45789
1963-05-12,3400.74797
1963-05-13,3614.06879
1963-05-14,4651.50642
1963-05-15,3805.08102
1963-05-16,3174.46742
1963-05-17,2957.81481
1963-05-18,2234.82668
1963-05-19,2339.5286
1963-05-20,2034.4823
1963-05-21,1931.48339
1963-05-22,2556.67072
1963-05-23,2453.65386
1963-05-24,3494.67571
1963-05-25,4019.34301
1963-05-26,4852.60703
1963-05-27,5676.18183
1963-05-28,6821.90169
1963-05-29,7159.53259
1963-05-30,7968.82761
1963-05-31,7958.98484
1963-06-01,8354.59963
1963-06-02,8771.99812
1963-06-03,9804.2502
1963-06-04,10528.5657
1963-06-05,10913.3216
1963-06-06,12878.232
1963-06-07,12152.8716
1963-06-08,12470.3921
1963-06-09,12472.773
1963-06-10,12579.0757
1963-06-11,9773.13398
1963-06-12,8319.0215
1963-06-13,8424.85257
1963-06-14,8526.0518
1963-06-15,8730.10749
1963-06-16,10500.4827
1963-06-17,10508.7757
1963-06-18,13947.6765
1963-06-19,19874.6723
1963-06-20,21224.9264
1963-06-21,18108.3908
1963-06-22,17493.1447
1963-06-23,14171.3171
1963-06-24,14080.4216
1963-06-25,14509.824
1963-06-26,11906.4799
1963-06-27,10949.3158
1963-06-28,10014.6496
1963-06-29,8352.88576
1963-06-30,6076.70336
1963-07-01,5558.46404
1963-07-02,6793.38216
1963-07-03,6253.43581
1963-07-04,6251.29958
1963-07-05,6257.32985
1963-07-06,6051.18627
1963-07-07,5847.83175
1963-07-08,4815.68319
1963-07-09,5129.41565
1963-07-10,5853.363
1963-07-11,7202.29627
1963-07-12,3979.96703
1963-07-13,5957.90208
1963-07-14,5335.66812
1963-07-15,6693.77814
1963-07-16,5341.1315
1963-07-17,5445.77507
1963-07-18,3886.21311
1963-07-19,3895.30564
1963-07-20,3167.62538
1963-07-21,3063.93347
1963-07-22,3168.25331
1963-07-23,2227.25784
1963-07-24,2335.44803
1963-07-25,4086.01953
1963-07-26,4272.647
1963-07-27,2087.59717
1963-07-28,2087.85718
1963-07-29,2088.11719
1963-07-30,2608.38923
1963-07-31,2609.57429
1963-08-01,2309.69876
1963-08-02,3038.09289
1963-08-03,2102.35035
1963-08-04,2206.62331
1963-08-05,2205.55422
1963-08-06,1997.92346
1963-08-07,2098.14747
1963-08-08,1678.37557
1963-08-09,1269.09524
1963-08-10,3977.63207
1963-08-11,3978.10985
1963-08-12,5850.89816
1963-08-13,3821.98605
1963-08-14,3822.37472
1963-08-15,3566.89008
1963-08-16,2427.731
1963-08-17,2533.99591
1963-08-18,2950.33141
1963-08-19,3882.82346
1963-08-20,1369.76298
1963-08-21,3338.1525
1963-08-22,1262.36856
1963-08-23,1581.06501
1963-08-24,2941.33019
1963-08-25,3153.65492
1963-08-26,1488.45892
1963-08-27,1800.64255
1963-08-28,2958.85509
1963-08-29,1090.84925
1963-08-30,2029.80566
1963-08-31,1093.83204
1963-09-01,2342.07889
1963-09-02,2234.28127
1963-09-03,2315.47391
1963-09-04,2913.93638
1963-09-05,1856.27195
1963-09-06,1872.94664
1963-09-07,2630.97126
1963-09-08,2423.21855
1963-09-09,2515.57721
1963-09-10,3026.58947
1963-09-11,2918.92857
1963-09-12,1989.0747
1963-09-13,2001.70837
1963-09-14,1686.02779
1963-09-15,1794.09995
1963-09-16,1792.88229
1963-09-17,1786.24081
1963-09-18,1801.00986
1963-09-19,1935.45751
1963-09-20,2148.20485
1963-09-21,4127.17383
1963-09-22,4338.66946
1963-09-23,4129.78174
1963-09-24,6004.77709
1963-09-25,3689.17403
1963-09-26,4274.38381
1963-09-27,4208.45021
1963-09-28,3683.57808
1963-09-29,3166.37123
1963-09-30,3481.25847
1963-10-01,2853.24595
1963-10-02,2731.54354
1963-10-03,2532.38312
1963-10-04,2323.01102
1963-10-05,2113.87696
1963-10-06,2196.64797
1963-10-07,2090.04175
1963-10-08,2152.96461
1963-10-09,2335.16556
1963-10-10,2021.72302
1963-10-11,1584.66755
1963-10-12,1665.87935
1963-10-13,1768.66867
1963-10-14,1806.92465
1963-10-15,1909.58202
1963-10-16,1690.29989
1963-10-17,1679.014
1963-10-18,1221.93752
1963-10-19,1686.14974
1963-10-20,1788.71249
1963-10-21,1683.46224
1963-10-22,1786.01694
1963-10-23,1740.55416
1963-10-24,1905.58568
1963-10-25,1284.18912
1963-10-26,1808.67697
1963-10-27,1703.26937
1963-10-28,1811.74924
1963-10-29,1566.75702
1963-10-30,1595.01765
1963-10-31,1810.65476
1963-11-01,1278.73673
1963-11-02,2001.41662
1963-11-03,1900.02049
1963-11-04,2020.37805
1963-11-05,2012.99585
1963-11-06,1387.5269
1963-11-07,1725.77438
1963-11-08,3436.30144
1963-11-09,1246.12808
1963-11-10,1427.2426
1963-11-11,1904.13219
1963-11-12,2159.60231
1963-11-13,1958.07384
1963-11-14,2334.07547
1963-11-15,2012.86291
1963-11-16,2120.15821
1963-11-17,2018.50366
1963-11-18,1912.43724
1963-11-19,1826.64548
1963-11-20,905.795885
1963-11-21,1321.33158
1963-11-22,1515.47308
1963-11-23,1446.51543
1963-11-24,1546.57697
1963-11-25,1545.05878
1963-11-26,1810.01389
1963-11-27,1309.70292
1963-11-28,1020.52539
1963-11-29,1126.89271
1963-11-30,986.341182
1963-12-01,1844.59287
1963-12-02,1810.90561
1963-12-03,1132.07387
1963-12-04,868.10777
1963-12-05,880.008772
1963-12-06,550.579595
1963-12-07,566.440009
1963-12-08,521.243104
1963-12-09,930.697316
1963-12-10,1094.89442
1963-12-11,825.49015
1963-12-12,805.207128
1963-12-13,515.259095
1963-12-14,593.020457
1963-12-15,471.639613
1963-12-16,455.747674
1963-12-17,448.828636
1963-12-18,1124.46766
1963-12-19,1541.59113
1963-12-20,1230.70632
1963-12-21,1612.98481
1963-12-22,1715.0013
1963-12-23,1742.77023
1963-12-24,1472.41766
1963-12-25,1500.11395
1963-12-26,1262.41763
1963-12-27,698.56295
1963-12-28,1692.28365
1963-12-29,1494.19488
1963-12-30,1436.93059
1963-12-31,540.308353
1964-01-01,670.931233
1964-01-02,1296.90653
1964-01-03,1188.92922
1964-01-04,1308.7891
1964-01-05,558.947821
1964-01-06,822.730628
1964-01-07,986.215084
1964-01-08,1194.19863
1964-01-09,882.175948
1964-01-10,817.754859
1964-01-11,1318.03837
1964-01-12,778.112093
1964-01-13,826.485084
1964-01-14,1174.30446
1964-01-15,614.541211
1964-01-16,690.317465
1964-01-17,785.499911
1964-01-18,693.802939
1964-01-19,513.922791
1964-01-20,759.515166
1964-01-21,1189.251
1964-01-22,407.599994
1964-01-23,1139.48683
1964-01-24,941.518545
1964-01-25,546.691411
1964-01-26,1145.02406
1964-01-27,1261.96939
1964-01-28,905.449693
1964-01-29,765.719635
1964-01-30,1204.94741
1964-01-31,484.977628
1964-02-01,1308.8953
1964-02-02,1495.19915
1964-02-03,1010.81219
1964-02-04,1198.09841
1964-02-05,575.480232
1964-02-06,1304.45462
1964-02-07,812.126989
1964-02-08,1390.49284
1964-02-09,718.858484
1964-02-10,1222.04678
1964-02-11,1221.31753
1964-02-12,829.867531
1964-02-13,1552.1651
1964-02-14,786.515902
1964-02-15,1175.91848
1964-02-16,695.83541
1964-02-17,1042.65308
1964-02-18,1696.33016
1964-02-19,218.069759
1964-02-20,678.930013
1964-02-21,1124.27101
1964-02-22,1444.12224
1964-02-23,806.201757
1964-02-24,1764.01376
1964-02-25,942.69335
1964-02-26,1024.98132
1964-02-27,1143.37306
1964-02-28,1118.42152
1964-02-29,672.631367
1964-03-01,877.835066
1964-03-02,1225.00918
1964-03-03,1254.76175
1964-03-04,750.611723
1964-03-05,924.815174
1964-03-06,508.922912
1964-03-07,1226.40786
1964-03-08,522.183778
1964-03-09,1322.4517
1964-03-10,524.078554
1964-03-11,681.743673
1964-03-12,1463.56353
1964-03-13,1265.48099
1964-03-14,1231.7615
1964-03-15,1241.67898
1964-03-16,1056.93921
1964-03-17,1421.37639
1964-03-18,1616.89192
1964-03-19,1336.76481
1964-03-20,1228.19851
1964-03-21,1736.31906
1964-03-22,1831.87949
1964-03-23,1759.10739
1964-03-24,1447.11651
1964-03-25,1564.48505
1964-03-26,2258.81326
1964-03-27,906.269945
1964-03-28,1360.82426
1964-03-29,1260.26785
1964-03-30,2725.73543
1964-03-31,3277.57559
1964-04-01,2995.41637
1964-04-02,3095.02527
1964-04-03,3085.13562
1964-04-04,2615.27351
1964-04-05,3341.33634
1964-04-06,3160.69935
1964-04-07,2538.75445
1964-04-08,3614.01532
1964-04-09,3533.57537
1964-04-10,4113.96778
1964-04-11,3463.95061
1964-04-12,3589.77265
1964-04-13,2479.20928
1964-04-14,2169.18117
1964-04-15,3398.97502
1964-04-16,3988.94506
1964-04-17,4930.58262
1964-04-18,4824.33896
1964-04-19,5468.74284
1964-04-20,5223.69594
1964-04-21,4977.5338
1964-04-22,4433.88285
1964-04-23,6048.56322
1964-04-24,4013.85986
1964-04-25,3651.13691
1964-04-26,4925.16465
1964-04-27,4003.91747
1964-04-28,3638.09101
1964-04-29,4283.68704
1964-04-30,4374.45951
1964-05-01,3906.21409
1964-05-02,5698.35517
1964-05-03,4512.6314
1964-05-04,4313.15335
1964-05-05,5451.42253
1964-05-06,5845.91525
1964-05-07,4818.71688
1964-05-08,5587.66424
1964-05-09,4974.05333
1964-05-10,5697.47431
1964-05-11,3952.69286
1964-05-12,5138.12171
1964-05-13,5080.58069
1964-05-14,5828.56369
1964-05-15,5107.30676
1964-05-16,6069.91918
1964-05-17,6596.82891
1964-05-18,5619.18915
1964-05-19,5942.52073
1964-05-20,8069.12548
1964-05-21,10710.9456
1964-05-22,11357.0687
1964-05-23,12245.5571
1964-05-24,14437.1892
1964-05-25,13437.9684
1964-05-26,15777.9804
1964-05-27,15914.8408
1964-05-28,15942.1582
1964-05-29,14260.9265
1964-05-30,15981.873
1964-05-31,15726.9072
1964-06-01,16376.7842
1964-06-02,15021.1639
1964-06-03,11680.5688
1964-06-04,14307.3875
1964-06-05,13825.1501
1964-06-06,14916.4071
1964-06-07,15436.1874
1964-06-08,16496.6719
1964-06-09,17247.4864
1964-06-10,15898.5771
1964-06-11,15871.6923
1964-06-12,15770.0859
1964-06-13,15143.6239
1964-06-14,16135.1035
1964-06-15,14742.1541
1964-06-16,14660.991
1964-06-17,16144.8076
1964-06-18,19367.4398
1964-06-19,17412.4786
1964-06-20,17638.3517
1964-06-21,17804.9084
1964-06-22,16590.4258
1964-06-23,15625.7802
1964-06-24,15193.3436
1964-06-25,15736.1308
1964-06-26,14283.363
1964-06-27,12920.4879
1964-06-28,14555.2137
1964-06-29,14643.1277
1964-06-30,15364.7538
1964-07-01,15184.3133
1964-07-02,15150.6258
1964-07-03,14237.5925
1964-07-04,14240.2507
1964-07-05,13951.2683
1964-07-06,13450.5377
1964-07-07,13075.8834
1964-07-08,13405.6745
1964-07-09,11947.7622
1964-07-10,13411.652
1964-07-11,12475.5337
1964-07-12,12225.6782
1964-07-13,14008.6706
1964-07-14,11347.8402
1964-07-15,11864.5366
1964-07-16,11688.851
1964-07-17,11119.1293
1964-07-18,12140.5649
1964-07-19,11018.1058
1964-07-20,10222.093
1964-07-21,11654.3266
1964-07-22,9852.3127
1964-07-23,11903.8686
1964-07-24,11329.8021
1964-07-25,10152.9582
1964-07-26,9900.85763
1964-07-27,10084.8723
1964-07-28,7514.5385
1964-07-29,6741.51155
1964-07-30,4854.57724
1964-07-31,5491.27068
1964-08-01,4683.98494
1964-08-02,3904.39182
1964-08-03,5193.66712
1964-08-04,5634.38349
1964-08-05,4532.50591
1964-08-06,3829.04343
1964-08-07,3631.55195
1964-08-08,4195.27882
1964-08-09,3750.32174
1964-08-10,3855.96018
1964-08-11,2290.72659
1964-08-12,2384.65702
1964-08-13,2565.0589
1964-08-14,2887.02525
1964-08-15,1995.34704
1964-08-16,2586.05402
1964-08-17,3378.07145
1964-08-18,2109.30567
1964-08-19,3357.43863
1964-08-20,1498.57379
1964-08-21,1230.66775
1964-08-22,2017.85071
1964-08-23,1776.98703
1964-08-24,1822.32883
1964-08-25,1697.76766
1964-08-26,1883.48118
1964-08-27,1195.04836
1964-08-28,2011.76855
1964-08-29,1456.61333
1964-08-30,708.615441
1964-08-31,1350.66154
1964-09-01,1420.10234
1964-09-02,1612.873
1964-09-03,1164.84267
1964-09-04,1060.68519
1964-09-05,1400.56133
1964-09-06,1051.37073
1964-09-07,1166.29482
1964-09-08,1963.91955
1964-09-09,974.105768
1964-09-10,1768.76169
1964-09-11,1605.00483
1964-09-12,1226.89553
1964-09-13,1261.78482
1964-09-14,1488.08819
1964-09-15,1666.36385
1964-09-16,2203.76394
1964-09-17,1223.33816
1964-09-18,1766.17746
1964-09-19,2104.99415
1964-09-20,2191.7217
1964-09-21,829.081032
1964-09-22,864.066143
1964-09-23,1059.58289
1964-09-24,621.785658
1964-09-25,693.676475
1964-09-26,934.419973
1964-09-27,908.363634
1964-09-28,1501.76397
1964-09-29,587.621164
1964-09-30,600.090648
1964-10-01,582.559091
1964-10-02,659.439288
1964-10-03,559.28504
1964-10-04,843.803079
1964-10-05,1569.57099
1964-10-06,1845.15488
1964-10-07,919.692981
1964-10-08,892.600937
1964-10-09,682.164266
1964-10-10,778.400606
1964-10-11,1226.35696
1964-10-12,683.026388
1964-10-13,700.577598
1964-10-14,955.770622
1964-10-15,765.327606
1964-10-16,1059.94202
1964-10-17,1126.22413
1964-10-18,1178.56594
1964-10-19,1756.40939
1964-10-20,1709.46175
1964-10-21,1191.43557
1964-10-22,1357.85295
1964-10-23,1264.70279
1964-10-24,835.941262
1964-10-25,1130.38209
1964-10-26,1703.07393
1964-10-27,1388.54362
1964-10-28,1158.19557
1964-10-29,764.851959
1964-10-30,1684.53853
1964-10-31,1904.7971
1964-11-01,923.467273
1964-11-02,1646.09566
1964-11-03,949.257071
1964-11-04,936.7506
1964-11-05,1102.77345
1964-11-06,744.348966
1964-11-07,1402.92851
1964-11-08,1083.55238
1964-11-09,787.084567
1964-11-10,908.771105
1964-11-11,1119.46339
1964-11-12,1184.99062
1964-11-13,1990.2268
1964-11-14,1534.14642
1964-11-15,1130.22389
1964-11-16,689.038718
1964-11-17,453.845117
1964-11-18,1063.53235
1964-11-19,1120.51503
1964-11-20,1021.23102
1964-11-21,1485.64007
1964-11-22,1524.41705
1964-11-23,778.907808
1964-11-24,862.97398
1964-11-25,1677.9067
1964-11-26,1122.97902
1964-11-27,1512.26861
1964-11-28,1655.86836
1964-11-29,1465.26299
1964-11-30,1866.99412
1964-12-01,2221.5928
1964-12-02,1603.52815
1964-12-03,1706.55196
1964-12-04,1259.14615
1964-12-05,1492.51434
1964-12-06,653.358049
1964-12-07,619.203199
1964-12-08,602.274486
1964-12-09,1023.12097
1964-12-10,1321.25992
1964-12-11,1421.28911
1964-12-12,1515.77984
1964-12-13,468.798152
1964-12-14,410.262989
1964-12-15,412.977161
1964-12-16,1164.65541
1964-12-17,1744.21298
1964-12-18,840.041971
1964-12-19,825.580421
1964-12-20,493.633848
1964-12-21,726.348598
1964-12-22,2362.15434
1964-12-23,2342.51224
1964-12-24,3937.58616
1964-12-25,3381.75797
1964-12-26,3506.21014
1964-12-27,2190.65383
1964-12-28,2280.91678
1964-12-29,1381.58977
1964-12-30,1401.32195
1964-12-31,1103.69313
1965-01-01,1024.65418
1965-01-02,585.277231
1965-01-03,719.709254
1965-01-04,952.272086
1965-01-05,1496.82672
1965-01-06,1430.15032
1965-01-07,1996.93212
1965-01-08,1120.20314
1965-01-09,1392.30412
1965-01-10,1242.77798
1965-01-11,1486.59112
1965-01-12,1172.90004
1965-01-13,974.463373
1965-01-14,723.00735
1965-01-15,615.410413
1965-01-16,1154.68837
1965-01-17,1732.71566
1965-01-18,1482.24053
1965-01-19,1444.06841
1965-01-20,1741.06491
1965-01-21,2008.37744
1965-01-22,928.560292
1965-01-23,1616.23091
1965-01-24,1986.56457
1965-01-25,1013.46258
1965-01-26,865.332074
1965-01-27,1558.86103
1965-01-28,1701.84664
1965-01-29,2979.21618
1965-01-30,3054.1571
1965-01-31,5742.58467
1965-02-01,3916.58787
1965-02-02,2154.98122
1965-02-03,3590.51239
1965-02-04,3224.25502
1965-02-05,2681.02962
1965-02-06,3245.40591
1965-02-07,2818.57089
1965-02-08,1407.96404
1965-02-09,3279.77261
1965-02-10,1907.91075
1965-02-11,1418.61284
1965-02-12,1631.40291
1965-02-13,1219.90994
1965-02-14,2507.03863
1965-02-15,992.334835
1965-02-16,2063.58179
1965-02-17,859.463054
1965-02-18,2042.36328
1965-02-19,2374.56108
1965-02-20,3240.73379
1965-02-21,2691.41243
1965-02-22,3147.60951
1965-02-23,2727.02913
1965-02-24,3169.90248
1965-02-25,1449.40752
1965-02-26,1427.35601
1965-02-27,3277.12588
1965-02-28,2518.388
1965-03-01,2586.90729
1965-03-02,2976.57067
1965-03-03,2698.70296
1965-03-04,2549.69537
1965-03-05,2470.18413
1965-03-06,2241.71316
1965-03-07,2088.5398
1965-03-08,2363.00907
1965-03-09,2438.89482
1965-03-10,1998.04382
1965-03-11,1978.01794
1965-03-12,2206.93654
1965-03-13,2023.53015
1965-03-14,2224.81911
1965-03-15,2468.68902
1965-03-16,2375.93095
1965-03-17,2791.23202
1965-03-18,1108.46974
1965-03-19,1920.94713
1965-03-20,1486.07489
1965-03-21,2025.80359
1965-03-22,2650.78669
1965-03-23,2879.66905
1965-03-24,1631.46418
1965-03-25,2192.18532
1965-03-26,1919.58617
1965-03-27,2549.58673
1965-03-28,2647.97395
1965-03-29,2466.17559
1965-03-30,2902.95616
1965-03-31,3734.91182
1965-04-01,3386.26383
1965-04-02,9293.19252
1965-04-03,8847.10653
1965-04-04,7461.78849
1965-04-05,7441.94181
1965-04-06,6551.31524
1965-04-07,5713.87861
1965-04-08,6041.28734
1965-04-09,6175.25953
1965-04-10,6004.64037
1965-04-11,6200.39478
1965-04-12,4878.6456
1965-04-13,5727.12178
1965-04-14,5291.03579
1965-04-15,5123.58606
1965-04-16,5034.4342
1965-04-17,4975.83116
1965-04-18,5045.21008
1965-04-19,5189.88978
1965-04-20,5606.71796
1965-04-21,5612.36249
1965-04-22,6379.9451
1965-04-23,6980.14195
1965-04-24,7104.89831
1965-04-25,8329.23439
1965-04-26,7363.05801
1965-04-27,6979.20298
1965-04-28,7435.57413
1965-04-29,7208.96229
1965-04-30,7553.53118
1965-05-01,8203.16211
1965-05-02,7900.9404
1965-05-03,8774.1446
1965-05-04,8533.2979
1965-05-05,9331.36244
1965-05-06,9248.49525
1965-05-07,9608.91521
1965-05-08,9547.38493
1965-05-09,9158.6925
1965-05-10,9544.1154
1965-05-11,9580.56657
1965-05-12,9820.7668
1965-05-13,10959.6458
1965-05-14,14263.5076
1965-05-15,15473.8886
1965-05-16,14151.5408
1965-05-17,13078.109
1965-05-18,11242.2914
1965-05-19,12580.9283
1965-05-20,12334.5239
1965-05-21,11478.8734
1965-05-22,11550.1654
1965-05-23,10818.8909
1965-05-24,14420.5486
1965-05-25,16149.792
1965-05-26,16067.8164
1965-05-27,15317.4823
1965-05-28,13951.9421
1965-05-29,13983.4694
1965-05-30,13434.6852
1965-05-31,13912.0593
1965-06-01,13350.5631
1965-06-02,18846.0433
1965-06-03,16758.3594
1965-06-04,19143.1253
1965-06-05,19795.0356
1965-06-06,17811.4064
1965-06-07,19549.5316
1965-06-08,20622.3872
1965-06-09,22358.0046
1965-06-10,37185.8404
1965-06-11,40754.9463
1965-06-12,36845.8677
1965-06-13,38822.2
1965-06-14,40352.0634
1965-06-15,35003.4534
1965-06-16,32240.1601
1965-06-17,31846.5429
1965-06-18,34540.5002
1965-06-19,36629.5747
1965-06-20,36028.9848
1965-06-21,34854.4378
1965-06-22,33869.6759
1965-06-23,32268.0058
1965-06-24,33599.2696
1965-06-25,33617.7032
1965-06-26,34362.176
1965-06-27,34921.7268
1965-06-28,38232.2389
1965-06-29,36647.1645
1965-06-30,39634.2508
1965-07-01,39324.0438
1965-07-02,25093.2706
1965-07-03,21668.1706
1965-07-04,20549.1431
1965-07-05,18756.1526
1965-07-06,18645.3831
1965-07-07,19622.1977
1965-07-08,20286.4849
1965-07-09,20478.3442
1965-07-10,20019.268
1965-07-11,19378.2758
1965-07-12,19753.0512
1965-07-13,18925.389
1965-07-14,18409.9378
1965-07-15,19134.3031
1965-07-16,19882.3344
1965-07-17,17899.6818
1965-07-18,19237.2386
1965-07-19,18122.6838
1965-07-20,13951.7898
1965-07-21,16180.5566
1965-07-22,13820.1022
1965-07-23,15891.4345
1965-07-24,12438.855
1965-07-25,14981.9803
1965-07-26,15471.9354
1965-07-27,14008.4636
1965-07-28,12961.8463
1965-07-29,12539.189
1965-07-30,13402.2692
1965-07-31,12606.3853
1965-08-01,12331.9019
1965-08-02,10933.4476
1965-08-03,13070.8863
1965-08-04,9658.8703
1965-08-05,8798.80965
1965-08-06,8472.72172
1965-08-07,7478.88224
1965-08-08,7167.13367
1965-08-09,7188.92127
1965-08-10,5813.65548
1965-08-11,6653.79425
1965-08-12,5286.55288
1965-08-13,5657.61542
1965-08-14,5804.39376
1965-08-15,5492.90105
1965-08-16,6426.65995
1965-08-17,5197.97474
1965-08-18,6574.22198
1965-08-19,7727.80903
1965-08-20,4862.12119
1965-08-21,7362.20059
1965-08-22,7876.67282
1965-08-23,6813.72445
1965-08-24,7425.71866
1965-08-25,7889.35641
1965-08-26,5897.04856
1965-08-27,6209.64869
1965-08-28,5378.1774
1965-08-29,5890.41818
1965-08-30,3163.3058
1965-08-31,4526.16656
1965-09-01,4597.38678
1965-09-02,4384.44681
1965-09-03,4196.60988
1965-09-04,2235.55813
1965-09-05,5318.54068
1965-09-06,5581.16017
1965-09-07,5843.77967
1965-09-08,6106.39917
1965-09-09,3127.67225
1965-09-10,4342.24661
1965-09-11,3142.08436
1965-09-12,2378.6331
1965-09-13,3583.59808
1965-09-14,1787.00412
1965-09-15,6588.81329
1965-09-16,5697.72529
1965-09-17,4806.63729
1965-09-18,3831.36081
1965-09-19,3728.02486
1965-09-20,4397.37748
1965-09-21,4711.74861
1965-09-22,5083.52307
1965-09-23,3481.20842
1965-09-24,4233.63234
1965-09-25,4007.86474
1965-09-26,2406.74638
1965-09-27,3396.05509
1965-09-28,4219.355
1965-09-29,2457.69854
1965-09-30,2476.14776
1965-10-01,4283.11135
1965-10-02,4718.97762
1965-10-03,4813.23593
1965-10-04,4709.13972
1965-10-05,4663.83747
1965-10-06,4295.8677
1965-10-07,5341.69058
1965-10-08,3289.65274
1965-10-09,3742.73018
1965-10-10,4164.77247
1965-10-11,4014.21923
1965-10-12,4107.1377
1965-10-13,3766.81417
1965-10-14,4615.56159
1965-10-15,4345.47269
1965-10-16,3638.46845
1965-10-17,3633.6977
1965-10-18,3506.18255
1965-10-19,4144.74415
1965-10-20,2982.55968
1965-10-21,2157.52687
1965-10-22,2253.48709
1965-10-23,2207.48317
1965-10-24,2878.6666
1965-10-25,3503.01434
1965-10-26,2254.40649
1965-10-27,3945.98277
1965-10-28,3271.05709
1965-10-29,2753.07367
1965-10-30,2691.24692
1965-10-31,3672.6254
1965-11-01,3145.4564
1965-11-02,3207.56972
1965-11-03,2209.68739
1965-11-04,2658.42967
1965-11-05,3101.56324
1965-11-06,3188.35274
1965-11-07,2980.59772
1965-11-08,3082.88636
1965-11-09,2036.12058
1965-11-10,3010.04549
1965-11-11,3019.81611
1965-11-12,3235.10821
1965-11-13,2769.91291
1965-11-14,3132.48955
1965-11-15,2271.90865
1965-11-16,1885.07351
1965-11-17,3010.85657
1965-11-18,3502.50969
1965-11-19,2536.33109
1965-11-20,3580.49165
1965-11-21,3771.36354
1965-11-22,2404.29822
1965-11-23,3508.97678
1965-11-24,2797.48664
1965-11-25,2505.69566
1965-11-26,2496.20084
1965-11-27,1800.49738
1965-11-28,922.870675
1965-11-29,1025.65641
1965-11-30,2212.42637